Year,Month,Day,Hour,Minute,Value (Times are PST for temperature in C)
2018,01,25,00,00,5.80
2018,01,25,00,01,5.80
2018,01,25,00,02,5.80
2018,01,25,00,03,5.70
2018,01,25,00,04,5.70
2018,01,25,00,05,5.70
2018,01,25,00,06,5.70
2018,01,25,00,07,5.70
2018,01,25,00,08,5.70
2018,01,25,00,09,5.70
2018,01,25,00,10,5.70
2018,01,25,00,11,5.60
2018,01,25,00,12,5.60
2018,01,25,00,13,5.60
2018,01,25,00,14,5.50
2018,01,25,00,15,5.50
2018,01,25,00,16,5.40
2018,01,25,00,17,5.40
2018,01,25,00,18,5.40
2018,01,25,00,19,5.40
2018,01,25,00,20,5.40
2018,01,25,00,21,5.40
2018,01,25,00,22,5.40
2018,01,25,00,23,5.40
2018,01,25,00,24,5.40
2018,01,25,00,25,5.40
2018,01,25,00,26,5.40
2018,01,25,00,27,5.40
2018,01,25,00,28,5.40
2018,01,25,00,29,5.30
2018,01,25,00,30,5.30
2018,01,25,00,31,5.30
2018,01,25,00,32,5.30
2018,01,25,00,33,5.30
2018,01,25,00,34,5.30
2018,01,25,00,35,5.30
2018,01,25,00,36,5.30
2018,01,25,00,37,5.30
2018,01,25,00,38,5.30
2018,01,25,00,39,5.30
2018,01,25,00,40,5.30
2018,01,25,00,41,5.30
2018,01,25,00,42,5.30
2018,01,25,00,43,5.30
2018,01,25,00,44,5.30
2018,01,25,00,45,5.30
2018,01,25,00,46,5.20
2018,01,25,00,47,5.20
2018,01,25,00,48,5.20
2018,01,25,00,49,5.20
2018,01,25,00,50,5.10
2018,01,25,00,51,5.10
2018,01,25,00,52,5.00
2018,01,25,00,53,5.00
2018,01,25,00,54,5.00
2018,01,25,00,55,4.90
2018,01,25,00,56,4.90
2018,01,25,00,57,4.80
2018,01,25,00,58,4.80
2018,01,25,00,59,4.80
2018,01,25,01,00,4.80
2018,01,25,01,01,4.70
2018,01,25,01,02,4.70
2018,01,25,01,03,4.60
2018,01,25,01,04,4.60
2018,01,25,01,05,4.50
2018,01,25,01,06,4.50
2018,01,25,01,07,4.40
2018,01,25,01,08,4.40
2018,01,25,01,09,4.30
2018,01,25,01,10,4.30
2018,01,25,01,11,4.20
2018,01,25,01,12,4.20
2018,01,25,01,13,4.10
2018,01,25,01,14,4.10
2018,01,25,01,15,4.00
2018,01,25,01,16,4.00
2018,01,25,01,17,3.90
2018,01,25,01,18,3.90
2018,01,25,01,19,3.80
2018,01,25,01,20,3.80
2018,01,25,01,21,3.80
2018,01,25,01,22,3.70
2018,01,25,01,23,3.70
2018,01,25,01,24,3.60
2018,01,25,01,25,3.60
2018,01,25,01,26,3.50
2018,01,25,01,27,3.50
2018,01,25,01,28,3.40
2018,01,25,01,29,3.30
2018,01,25,01,30,3.30
2018,01,25,01,31,3.20
2018,01,25,01,32,3.20
2018,01,25,01,33,3.20
2018,01,25,01,34,3.10
2018,01,25,01,35,3.10
2018,01,25,01,36,3.10
2018,01,25,01,37,3.10
2018,01,25,01,38,3.10
2018,01,25,01,39,3.10
2018,01,25,01,40,3.00
2018,01,25,01,41,3.00
2018,01,25,01,42,3.00
2018,01,25,01,43,2.90
2018,01,25,01,44,2.90
2018,01,25,01,45,2.90
2018,01,25,01,46,2.90
2018,01,25,01,47,2.80
2018,01,25,01,48,2.80
2018,01,25,01,49,2.80
2018,01,25,01,50,2.70
2018,01,25,01,51,2.70
2018,01,25,01,52,2.70
2018,01,25,01,53,2.60
2018,01,25,01,54,2.60
2018,01,25,01,55,2.50
2018,01,25,01,56,2.50
2018,01,25,01,57,2.40
2018,01,25,01,58,2.40
2018,01,25,01,59,2.40
2018,01,25,02,00,2.30
2018,01,25,02,01,2.30
2018,01,25,02,02,2.20
2018,01,25,02,03,2.20
2018,01,25,02,04,2.20
2018,01,25,02,05,2.10
2018,01,25,02,06,2.10
2018,01,25,02,07,2.10
2018,01,25,02,08,2.00
2018,01,25,02,09,2.00
2018,01,25,02,10,1.90
2018,01,25,02,11,1.90
2018,01,25,02,12,1.80
2018,01,25,02,13,1.80
2018,01,25,02,14,1.80
2018,01,25,02,15,1.70
2018,01,25,02,16,1.70
2018,01,25,02,17,1.70
2018,01,25,02,18,1.60
2018,01,25,02,19,1.60
2018,01,25,02,20,1.60
2018,01,25,02,21,1.50
2018,01,25,02,22,1.50
2018,01,25,02,23,1.40
2018,01,25,02,24,1.40
2018,01,25,02,25,1.40
2018,01,25,02,26,1.40
2018,01,25,02,27,1.30
2018,01,25,02,28,1.30
2018,01,25,02,29,1.30
2018,01,25,02,30,1.30
2018,01,25,02,31,1.30
2018,01,25,02,32,1.30
2018,01,25,02,33,1.30
2018,01,25,02,34,1.30
2018,01,25,02,35,1.30
2018,01,25,02,36,1.30
2018,01,25,02,37,1.30
2018,01,25,02,38,1.20
2018,01,25,02,39,1.20
2018,01,25,02,40,1.20
2018,01,25,02,41,1.20
2018,01,25,02,42,1.20
2018,01,25,02,43,1.20
2018,01,25,02,44,1.20
2018,01,25,02,45,1.20
2018,01,25,02,46,1.20
2018,01,25,02,47,1.20
2018,01,25,02,48,1.20
2018,01,25,02,49,1.20
2018,01,25,02,50,1.20
2018,01,25,02,51,1.20
2018,01,25,02,52,1.20
2018,01,25,02,53,1.20
2018,01,25,02,54,1.20
2018,01,25,02,55,1.20
2018,01,25,02,56,1.20
2018,01,25,02,57,1.20
2018,01,25,02,58,1.20
2018,01,25,02,59,1.20
2018,01,25,03,00,1.20
2018,01,25,03,01,1.20
2018,01,25,03,02,1.20
2018,01,25,03,03,1.20
2018,01,25,03,04,1.20
2018,01,25,03,05,1.20
2018,01,25,03,06,1.20
2018,01,25,03,07,1.20
2018,01,25,03,08,1.20
2018,01,25,03,09,1.20
2018,01,25,03,10,1.20
2018,01,25,03,11,1.20
2018,01,25,03,12,1.20
2018,01,25,03,13,1.20
2018,01,25,03,14,1.20
2018,01,25,03,15,1.30
2018,01,25,03,16,1.30
2018,01,25,03,17,1.30
2018,01,25,03,18,1.30
2018,01,25,03,19,1.30
2018,01,25,03,20,1.30
2018,01,25,03,21,1.40
2018,01,25,03,22,1.40
2018,01,25,03,23,1.40
2018,01,25,03,24,1.40
2018,01,25,03,25,1.50
2018,01,25,03,26,1.50
2018,01,25,03,27,1.50
2018,01,25,03,28,1.50
2018,01,25,03,29,1.60
2018,01,25,03,30,1.60
2018,01,25,03,31,1.60
2018,01,25,03,32,1.60
2018,01,25,03,33,1.60
2018,01,25,03,34,1.60
2018,01,25,03,35,1.60
2018,01,25,03,36,1.70
2018,01,25,03,37,1.70
2018,01,25,03,38,1.80
2018,01,25,03,39,1.80
2018,01,25,03,40,1.90
2018,01,25,03,41,2.00
2018,01,25,03,42,2.20
2018,01,25,03,43,2.30
2018,01,25,03,44,2.50
2018,01,25,03,45,2.60
2018,01,25,03,46,2.80
2018,01,25,03,47,2.90
2018,01,25,03,48,3.00
2018,01,25,03,49,3.10
2018,01,25,03,50,3.20
2018,01,25,03,51,3.30
2018,01,25,03,52,3.40
2018,01,25,03,53,3.50
2018,01,25,03,54,3.60
2018,01,25,03,55,3.70
2018,01,25,03,56,3.80
2018,01,25,03,57,3.80
2018,01,25,03,58,3.90
2018,01,25,03,59,3.90
2018,01,25,04,00,4.00
2018,01,25,04,01,4.00
2018,01,25,04,02,4.10
2018,01,25,04,03,4.10
2018,01,25,04,04,4.10
2018,01,25,04,05,4.10
2018,01,25,04,06,4.20
2018,01,25,04,07,4.20
2018,01,25,04,08,4.20
2018,01,25,04,09,4.20
2018,01,25,04,10,4.30
2018,01,25,04,11,4.30
2018,01,25,04,12,4.30
2018,01,25,04,13,4.30
2018,01,25,04,14,4.30
2018,01,25,04,15,4.30
2018,01,25,04,16,4.30
2018,01,25,04,17,4.30
2018,01,25,04,18,4.30
2018,01,25,04,19,4.30
2018,01,25,04,20,4.30
2018,01,25,04,21,4.30
2018,01,25,04,22,4.40
2018,01,25,04,23,4.40
2018,01,25,04,24,4.40
2018,01,25,04,25,4.40
2018,01,25,04,26,4.40
2018,01,25,04,27,4.40
2018,01,25,04,28,4.40
2018,01,25,04,29,4.40
2018,01,25,04,30,4.40
2018,01,25,04,31,4.40
2018,01,25,04,32,4.40
2018,01,25,04,33,4.40
2018,01,25,04,34,4.40
2018,01,25,04,35,4.40
2018,01,25,04,36,4.40
2018,01,25,04,37,4.40
2018,01,25,04,38,4.40
2018,01,25,04,39,4.40
2018,01,25,04,40,4.40
2018,01,25,04,41,4.40
2018,01,25,04,42,4.40
2018,01,25,04,43,4.40
2018,01,25,04,44,4.40
2018,01,25,04,45,4.40
2018,01,25,04,46,4.40
2018,01,25,04,47,4.40
2018,01,25,04,48,4.40
2018,01,25,04,49,4.40
2018,01,25,04,50,4.40
2018,01,25,04,51,4.40
2018,01,25,04,52,4.40
2018,01,25,04,53,4.40
2018,01,25,04,54,4.40
2018,01,25,04,55,4.40
2018,01,25,04,56,4.40
2018,01,25,04,57,4.30
2018,01,25,04,58,4.30
2018,01,25,04,59,4.30
2018,01,25,05,00,4.30
2018,01,25,05,01,4.30
2018,01,25,05,02,4.30
2018,01,25,05,03,4.30
2018,01,25,05,04,4.30
2018,01,25,05,05,4.30
2018,01,25,05,06,4.30
2018,01,25,05,07,4.30
2018,01,25,05,08,4.30
2018,01,25,05,09,4.30
2018,01,25,05,10,4.30
2018,01,25,05,11,4.30
2018,01,25,05,12,4.30
2018,01,25,05,13,4.30
2018,01,25,05,14,4.30
2018,01,25,05,15,4.30
2018,01,25,05,16,4.30
2018,01,25,05,17,4.30
2018,01,25,05,18,4.30
2018,01,25,05,19,4.30
2018,01,25,05,20,4.30
2018,01,25,05,21,4.30
2018,01,25,05,22,4.30
2018,01,25,05,23,4.30
2018,01,25,05,24,4.30
2018,01,25,05,25,4.30
2018,01,25,05,26,4.30
2018,01,25,05,27,4.30
2018,01,25,05,28,4.40
2018,01,25,05,29,4.40
2018,01,25,05,30,4.30
2018,01,25,05,31,4.40
2018,01,25,05,32,4.30
2018,01,25,05,33,4.30
2018,01,25,05,34,4.40
2018,01,25,05,35,4.40
2018,01,25,05,36,4.40
2018,01,25,05,37,4.40
2018,01,25,05,38,4.40
2018,01,25,05,39,4.40
2018,01,25,05,40,4.40
2018,01,25,05,41,4.40
2018,01,25,05,42,4.40
2018,01,25,05,43,4.40
2018,01,25,05,44,4.40
2018,01,25,05,45,4.40
2018,01,25,05,46,4.40
2018,01,25,05,47,4.40
2018,01,25,05,48,4.40
2018,01,25,05,49,4.50
2018,01,25,05,50,4.50
2018,01,25,05,51,4.50
2018,01,25,05,52,4.50
2018,01,25,05,53,4.50
2018,01,25,05,54,4.60
2018,01,25,05,55,4.60
2018,01,25,05,56,4.60
2018,01,25,05,57,4.60
2018,01,25,05,58,4.60
2018,01,25,05,59,4.60
2018,01,25,06,00,4.60
2018,01,25,06,01,4.60
2018,01,25,06,02,4.60
2018,01,25,06,03,4.60
2018,01,25,06,04,4.60
2018,01,25,06,05,4.60
2018,01,25,06,06,4.60
2018,01,25,06,07,4.60
2018,01,25,06,08,4.60
2018,01,25,06,09,4.60
2018,01,25,06,10,4.60
2018,01,25,06,11,4.60
2018,01,25,06,12,4.60
2018,01,25,06,13,4.60
2018,01,25,06,14,4.60
2018,01,25,06,15,4.60
2018,01,25,06,16,4.60
2018,01,25,06,17,4.60
2018,01,25,06,18,4.60
2018,01,25,06,19,4.50
2018,01,25,06,20,4.50
2018,01,25,06,21,4.50
2018,01,25,06,22,4.50
2018,01,25,06,23,4.50
2018,01,25,06,24,4.50
2018,01,25,06,25,4.50
2018,01,25,06,26,4.40
2018,01,25,06,27,4.40
2018,01,25,06,28,4.40
2018,01,25,06,29,4.40
2018,01,25,06,30,4.40
2018,01,25,06,31,4.40
2018,01,25,06,32,4.40
2018,01,25,06,33,4.40
2018,01,25,06,34,4.40
2018,01,25,06,35,4.40
2018,01,25,06,36,4.40
2018,01,25,06,37,4.50
2018,01,25,06,38,4.50
2018,01,25,06,39,4.60
2018,01,25,06,40,4.60
2018,01,25,06,41,4.60
2018,01,25,06,42,4.60
2018,01,25,06,43,4.60
2018,01,25,06,44,4.60
2018,01,25,06,45,4.60
2018,01,25,06,46,4.60
2018,01,25,06,47,4.60
2018,01,25,06,48,4.60
2018,01,25,06,49,4.60
2018,01,25,06,50,4.60
2018,01,25,06,51,4.70
2018,01,25,06,52,4.60
2018,01,25,06,53,4.60
2018,01,25,06,54,4.60
2018,01,25,06,55,4.60
2018,01,25,06,56,4.60
2018,01,25,06,57,4.60
2018,01,25,06,58,4.60
2018,01,25,06,59,4.60
2018,01,25,07,00,4.60
2018,01,25,07,01,4.60
2018,01,25,07,02,4.60
2018,01,25,07,03,4.60
2018,01,25,07,04,4.60
2018,01,25,07,05,4.60
2018,01,25,07,06,4.60
2018,01,25,07,07,4.60
2018,01,25,07,08,4.60
2018,01,25,07,09,4.60
2018,01,25,07,10,4.60
2018,01,25,07,11,4.60
2018,01,25,07,12,4.60
2018,01,25,07,13,4.60
2018,01,25,07,14,4.70
2018,01,25,07,15,4.70
2018,01,25,07,16,4.70
2018,01,25,07,17,4.70
2018,01,25,07,18,4.70
2018,01,25,07,19,4.70
2018,01,25,07,20,4.70
2018,01,25,07,21,4.70
2018,01,25,07,22,4.70
2018,01,25,07,23,4.70
2018,01,25,07,24,4.70
2018,01,25,07,25,4.70
2018,01,25,07,26,4.70
2018,01,25,07,27,4.70
2018,01,25,07,28,4.70
2018,01,25,07,29,4.70
2018,01,25,07,30,4.70
2018,01,25,07,31,4.80
2018,01,25,07,32,4.80
2018,01,25,07,33,4.80
2018,01,25,07,34,4.80
2018,01,25,07,35,4.80
2018,01,25,07,36,4.80
2018,01,25,07,37,4.80
2018,01,25,07,38,4.80
2018,01,25,07,39,4.80
2018,01,25,07,40,4.80
2018,01,25,07,41,4.80
2018,01,25,07,42,4.80
2018,01,25,07,43,4.80
2018,01,25,07,44,4.80
2018,01,25,07,45,4.70
2018,01,25,07,46,4.70
2018,01,25,07,47,4.70
2018,01,25,07,48,4.70
2018,01,25,07,49,4.70
2018,01,25,07,50,4.70
2018,01,25,07,51,4.70
2018,01,25,07,52,4.70
2018,01,25,07,53,4.70
2018,01,25,07,54,4.70
2018,01,25,07,55,4.70
2018,01,25,07,56,4.70
2018,01,25,07,57,4.70
2018,01,25,07,58,4.70
2018,01,25,07,59,4.80
2018,01,25,08,00,4.80
2018,01,25,08,01,4.80
2018,01,25,08,02,4.80
2018,01,25,08,03,4.80
2018,01,25,08,04,4.80
2018,01,25,08,05,4.80
2018,01,25,08,06,4.80
2018,01,25,08,07,4.80
2018,01,25,08,08,4.80
2018,01,25,08,09,4.80
2018,01,25,08,10,4.80
2018,01,25,08,11,4.80
2018,01,25,08,12,4.80
2018,01,25,08,13,4.80
2018,01,25,08,14,4.80
2018,01,25,08,15,4.80
2018,01,25,08,16,4.80
2018,01,25,08,17,4.80
2018,01,25,08,18,4.80
2018,01,25,08,19,4.80
2018,01,25,08,20,4.80
2018,01,25,08,21,4.80
2018,01,25,08,22,4.80
2018,01,25,08,23,4.80
2018,01,25,08,24,4.80
2018,01,25,08,25,4.80
2018,01,25,08,26,4.90
2018,01,25,08,27,4.90
2018,01,25,08,28,4.90
2018,01,25,08,29,4.90
2018,01,25,08,30,4.90
2018,01,25,08,31,4.90
2018,01,25,08,32,4.90
2018,01,25,08,33,4.90
2018,01,25,08,34,5.00
2018,01,25,08,35,5.00
2018,01,25,08,36,5.00
2018,01,25,08,37,5.00
2018,01,25,08,38,5.00
2018,01,25,08,39,5.00
2018,01,25,08,40,5.00
2018,01,25,08,41,5.00
2018,01,25,08,42,5.00
2018,01,25,08,43,5.00
2018,01,25,08,44,5.00
2018,01,25,08,45,5.00
2018,01,25,08,46,5.00
2018,01,25,08,47,5.00
2018,01,25,08,48,5.00
2018,01,25,08,49,5.00
2018,01,25,08,50,5.00
2018,01,25,08,51,5.00
2018,01,25,08,52,5.00
2018,01,25,08,53,5.00
2018,01,25,08,54,5.00
2018,01,25,08,55,5.00
2018,01,25,08,56,5.00
2018,01,25,08,57,5.00
2018,01,25,08,58,5.00
2018,01,25,08,59,5.00
2018,01,25,09,00,5.00
2018,01,25,09,01,5.00
2018,01,25,09,02,5.00
2018,01,25,09,03,5.00
2018,01,25,09,04,5.00
2018,01,25,09,05,5.00
2018,01,25,09,06,5.00
2018,01,25,09,07,5.00
2018,01,25,09,08,5.00
2018,01,25,09,09,5.00
2018,01,25,09,10,5.00
2018,01,25,09,11,5.00
2018,01,25,09,12,5.00
2018,01,25,09,13,5.00
2018,01,25,09,14,5.00
2018,01,25,09,15,5.00
2018,01,25,09,16,5.00
2018,01,25,09,17,5.00
2018,01,25,09,18,5.00
2018,01,25,09,19,5.00
2018,01,25,09,20,5.00
2018,01,25,09,21,5.00
2018,01,25,09,22,5.00
2018,01,25,09,23,5.00
2018,01,25,09,24,5.00
2018,01,25,09,25,5.00
2018,01,25,09,26,5.00
2018,01,25,09,27,5.00
2018,01,25,09,28,5.00
2018,01,25,09,29,5.00
2018,01,25,09,30,5.00
2018,01,25,09,31,5.00
2018,01,25,09,32,5.00
2018,01,25,09,33,5.00
2018,01,25,09,34,5.00
2018,01,25,09,35,5.00
2018,01,25,09,36,5.00
2018,01,25,09,37,5.00
2018,01,25,09,38,5.00
2018,01,25,09,39,5.10
2018,01,25,09,40,5.10
2018,01,25,09,41,5.10
2018,01,25,09,42,5.10
2018,01,25,09,43,5.10
2018,01,25,09,44,5.10
2018,01,25,09,45,5.10
2018,01,25,09,46,5.10
2018,01,25,09,47,5.10
2018,01,25,09,48,5.10
2018,01,25,09,49,5.20
2018,01,25,09,50,5.20
2018,01,25,09,51,5.20
2018,01,25,09,52,5.20
2018,01,25,09,53,5.20
2018,01,25,09,54,5.20
2018,01,25,09,55,5.20
2018,01,25,09,56,5.20
2018,01,25,09,57,5.20
2018,01,25,09,58,5.20
2018,01,25,09,59,5.20
2018,01,25,10,00,5.20
2018,01,25,10,01,5.20
2018,01,25,10,02,5.20
2018,01,25,10,03,5.20
2018,01,25,10,04,5.20
2018,01,25,10,05,5.20
2018,01,25,10,06,5.20
2018,01,25,10,07,5.20
2018,01,25,10,08,5.20
2018,01,25,10,09,5.20
2018,01,25,10,10,5.20
2018,01,25,10,11,5.20
2018,01,25,10,12,5.20
2018,01,25,10,13,5.20
2018,01,25,10,14,5.20
2018,01,25,10,15,5.20
2018,01,25,10,16,5.20
2018,01,25,10,17,5.20
2018,01,25,10,18,5.20
2018,01,25,10,19,5.20
2018,01,25,10,20,5.20
2018,01,25,10,21,5.20
2018,01,25,10,22,5.20
2018,01,25,10,23,5.20
2018,01,25,10,24,5.20
2018,01,25,10,25,5.20
2018,01,25,10,26,5.20
2018,01,25,10,27,5.20
2018,01,25,10,28,5.30
2018,01,25,10,29,5.30
2018,01,25,10,30,5.30
2018,01,25,10,31,5.30
2018,01,25,10,32,5.30
2018,01,25,10,33,5.30
2018,01,25,10,34,5.40
2018,01,25,10,35,5.40
2018,01,25,10,36,5.40
2018,01,25,10,37,5.40
2018,01,25,10,38,5.40
2018,01,25,10,39,5.40
2018,01,25,10,40,5.40
2018,01,25,10,41,5.40
2018,01,25,10,42,5.40
2018,01,25,10,43,5.40
2018,01,25,10,44,5.40
2018,01,25,10,45,5.40
2018,01,25,10,46,5.40
2018,01,25,10,47,5.40
2018,01,25,10,48,5.40
2018,01,25,10,49,5.40
2018,01,25,10,50,5.40
2018,01,25,10,51,5.40
2018,01,25,10,52,5.40
2018,01,25,10,53,5.40
2018,01,25,10,54,5.40
2018,01,25,10,55,5.40
2018,01,25,10,56,5.40
2018,01,25,10,57,5.40
2018,01,25,10,58,5.40
2018,01,25,10,59,5.40
2018,01,25,11,00,5.40
2018,01,25,11,01,5.40
2018,01,25,11,02,5.40
2018,01,25,11,03,5.40
2018,01,25,11,04,5.40
2018,01,25,11,05,5.40
2018,01,25,11,06,5.40
2018,01,25,11,07,5.40
2018,01,25,11,08,5.40
2018,01,25,11,09,5.40
2018,01,25,11,10,5.40
2018,01,25,11,11,5.40
2018,01,25,11,12,5.40
2018,01,25,11,13,5.40
2018,01,25,11,14,5.40
2018,01,25,11,15,5.40
2018,01,25,11,16,5.40
2018,01,25,11,17,5.40
2018,01,25,11,18,5.40
2018,01,25,11,19,5.50
2018,01,25,11,20,5.50
2018,01,25,11,21,5.50
2018,01,25,11,22,5.50
2018,01,25,11,23,5.50
2018,01,25,11,24,5.60
2018,01,25,11,25,5.60
2018,01,25,11,26,5.60
2018,01,25,11,27,5.60
2018,01,25,11,28,5.60
2018,01,25,11,29,5.60
2018,01,25,11,30,5.60
2018,01,25,11,31,5.60
2018,01,25,11,32,5.60
2018,01,25,11,33,5.60
2018,01,25,11,34,5.60
2018,01,25,11,35,5.50
2018,01,25,11,36,5.50
2018,01,25,11,37,5.50
2018,01,25,11,38,5.50
2018,01,25,11,39,5.40
2018,01,25,11,40,5.40
2018,01,25,11,41,5.40
2018,01,25,11,42,5.40
2018,01,25,11,43,5.40
2018,01,25,11,44,5.40
2018,01,25,11,45,5.40
2018,01,25,11,46,5.30
2018,01,25,11,47,5.30
2018,01,25,11,48,5.30
2018,01,25,11,49,5.30
2018,01,25,11,50,5.30
2018,01,25,11,51,5.30
2018,01,25,11,52,5.30
2018,01,25,11,53,5.30
2018,01,25,11,54,5.30
2018,01,25,11,55,5.30
2018,01,25,11,56,5.30
2018,01,25,11,57,5.30
2018,01,25,11,58,5.30
2018,01,25,11,59,5.30
2018,01,25,12,00,5.30
2018,01,25,12,01,5.40
2018,01,25,12,02,5.40
2018,01,25,12,03,5.40
2018,01,25,12,04,5.40
2018,01,25,12,05,5.40
2018,01,25,12,06,5.50
2018,01,25,12,07,5.50
2018,01,25,12,08,5.50
2018,01,25,12,09,5.60
2018,01,25,12,10,5.60
2018,01,25,12,11,5.50
2018,01,25,12,12,5.60
2018,01,25,12,13,5.60
2018,01,25,12,14,5.60
2018,01,25,12,15,5.60
2018,01,25,12,16,5.60
2018,01,25,12,17,5.60
2018,01,25,12,18,5.60
2018,01,25,12,19,5.60
2018,01,25,12,20,5.60
2018,01,25,12,21,5.60
2018,01,25,12,22,5.60
2018,01,25,12,23,5.70
2018,01,25,12,24,5.70
2018,01,25,12,25,5.70
2018,01,25,12,26,5.70
2018,01,25,12,27,5.70
2018,01,25,12,28,5.70
2018,01,25,12,29,5.70
2018,01,25,12,30,5.70
2018,01,25,12,31,5.70
2018,01,25,12,32,5.70
2018,01,25,12,33,5.70
2018,01,25,12,34,5.70
2018,01,25,12,35,5.80
2018,01,25,12,36,5.80
2018,01,25,12,37,5.80
2018,01,25,12,38,5.80
2018,01,25,12,39,5.80
2018,01,25,12,40,5.80
2018,01,25,12,41,5.70
2018,01,25,12,42,5.70
2018,01,25,12,43,5.70
2018,01,25,12,44,5.70
2018,01,25,12,45,5.70
2018,01,25,12,46,5.60
2018,01,25,12,47,5.60
2018,01,25,12,48,5.50
2018,01,25,12,49,5.50
2018,01,25,12,50,5.50
2018,01,25,12,51,5.40
2018,01,25,12,52,5.40
2018,01,25,12,53,5.40
2018,01,25,12,54,5.40
2018,01,25,12,55,5.40
2018,01,25,12,56,5.40
2018,01,25,12,57,5.40
2018,01,25,12,58,5.40
2018,01,25,12,59,5.40
2018,01,25,13,00,5.40
2018,01,25,13,01,5.40
2018,01,25,13,02,5.40
2018,01,25,13,03,5.40
2018,01,25,13,04,5.40
2018,01,25,13,05,5.30
2018,01,25,13,06,5.40
2018,01,25,13,07,5.40
2018,01,25,13,08,5.40
2018,01,25,13,09,5.40
2018,01,25,13,10,5.40
2018,01,25,13,11,5.40
2018,01,25,13,12,5.40
2018,01,25,13,13,5.40
2018,01,25,13,14,5.40
2018,01,25,13,15,5.40
2018,01,25,13,16,5.40
2018,01,25,13,17,5.40
2018,01,25,13,18,5.40
2018,01,25,13,19,5.40
2018,01,25,13,20,5.40
2018,01,25,13,21,5.40
2018,01,25,13,22,5.40
2018,01,25,13,23,5.40
2018,01,25,13,24,5.40
2018,01,25,13,25,5.40
2018,01,25,13,26,5.40
2018,01,25,13,27,5.40
2018,01,25,13,28,5.40
2018,01,25,13,29,5.40
2018,01,25,13,30,5.30
2018,01,25,13,31,5.30
2018,01,25,13,32,5.30
2018,01,25,13,33,5.30
2018,01,25,13,34,5.30
2018,01,25,13,35,5.30
2018,01,25,13,36,5.30
2018,01,25,13,37,5.30
2018,01,25,13,38,5.30
2018,01,25,13,39,5.40
2018,01,25,13,40,5.50
2018,01,25,13,41,5.60
2018,01,25,13,42,5.60
2018,01,25,13,43,5.70
2018,01,25,13,44,5.80
2018,01,25,13,45,5.80
2018,01,25,13,46,5.90
2018,01,25,13,47,5.90
2018,01,25,13,48,6.00
2018,01,25,13,49,6.00
2018,01,25,13,50,6.10
2018,01,25,13,51,6.10
2018,01,25,13,52,6.10
2018,01,25,13,53,6.10
2018,01,25,13,54,6.10
2018,01,25,13,55,6.10
2018,01,25,13,56,6.20
2018,01,25,13,57,6.20
2018,01,25,13,58,6.10
2018,01,25,13,59,6.10
2018,01,25,14,00,6.10
2018,01,25,14,01,6.10
2018,01,25,14,02,6.10
2018,01,25,14,03,6.10
2018,01,25,14,04,6.10
2018,01,25,14,05,6.10
2018,01,25,14,06,6.10
2018,01,25,14,07,6.20
2018,01,25,14,08,6.20
2018,01,25,14,09,6.20
2018,01,25,14,10,6.30
2018,01,25,14,11,6.30
2018,01,25,14,12,6.40
2018,01,25,14,13,6.50
2018,01,25,14,14,6.50
2018,01,25,14,15,6.60
2018,01,25,14,16,6.60
2018,01,25,14,17,6.60
2018,01,25,14,18,6.70
2018,01,25,14,19,6.70
2018,01,25,14,20,6.80
2018,01,25,14,21,6.80
2018,01,25,14,22,6.90
2018,01,25,14,23,6.90
2018,01,25,14,24,7.00
2018,01,25,14,25,7.00
2018,01,25,14,26,7.10
2018,01,25,14,27,7.10
2018,01,25,14,28,7.10
2018,01,25,14,29,7.20
2018,01,25,14,30,7.20
2018,01,25,14,31,7.30
2018,01,25,14,32,7.30
2018,01,25,14,33,7.30
2018,01,25,14,34,7.20
2018,01,25,14,35,7.30
2018,01,25,14,36,7.30
2018,01,25,14,37,7.30
2018,01,25,14,38,7.40
2018,01,25,14,39,7.40
2018,01,25,14,40,7.40
2018,01,25,14,41,7.40
2018,01,25,14,42,7.40
2018,01,25,14,43,7.40
2018,01,25,14,44,7.40
2018,01,25,14,45,7.40
2018,01,25,14,46,7.40
2018,01,25,14,47,7.40
2018,01,25,14,48,7.40
2018,01,25,14,49,7.50
2018,01,25,14,50,7.50
2018,01,25,14,51,7.40
2018,01,25,14,52,7.40
2018,01,25,14,53,7.30
2018,01,25,14,54,7.30
2018,01,25,14,55,7.10
2018,01,25,14,56,7.00
2018,01,25,14,57,6.90
2018,01,25,14,58,6.80
2018,01,25,14,59,6.80
2018,01,25,15,00,6.70
2018,01,25,15,01,6.60
2018,01,25,15,02,6.60
2018,01,25,15,03,6.60
2018,01,25,15,04,6.50
2018,01,25,15,05,6.50
2018,01,25,15,06,6.40
2018,01,25,15,07,6.40
2018,01,25,15,08,6.40
2018,01,25,15,09,6.30
2018,01,25,15,10,6.30
2018,01,25,15,11,6.30
2018,01,25,15,12,6.20
2018,01,25,15,13,6.20
2018,01,25,15,14,6.20
2018,01,25,15,15,6.20
2018,01,25,15,16,6.20
2018,01,25,15,17,6.20
2018,01,25,15,18,6.10
2018,01,25,15,19,6.10
2018,01,25,15,20,6.10
2018,01,25,15,21,6.10
2018,01,25,15,22,6.10
2018,01,25,15,23,6.10
2018,01,25,15,24,6.10
2018,01,25,15,25,6.10
2018,01,25,15,26,6.10
2018,01,25,15,27,6.10
2018,01,25,15,28,6.10
2018,01,25,15,29,6.10
2018,01,25,15,30,6.10
2018,01,25,15,31,6.20
2018,01,25,15,32,6.20
2018,01,25,15,33,6.20
2018,01,25,15,34,6.20
2018,01,25,15,35,6.20
2018,01,25,15,36,6.20
2018,01,25,15,37,6.20
2018,01,25,15,38,6.20
2018,01,25,15,39,6.10
2018,01,25,15,40,6.10
2018,01,25,15,41,6.10
2018,01,25,15,42,6.10
2018,01,25,15,43,6.10
2018,01,25,15,44,6.00
2018,01,25,15,45,6.00
2018,01,25,15,46,6.00
2018,01,25,15,47,6.00
2018,01,25,15,48,6.00
2018,01,25,15,49,6.00
2018,01,25,15,50,6.00
2018,01,25,15,51,6.10
2018,01,25,15,52,6.10
2018,01,25,15,53,6.10
2018,01,25,15,54,6.10
2018,01,25,15,55,6.10
2018,01,25,15,56,6.20
2018,01,25,15,57,6.20
2018,01,25,15,58,6.20
2018,01,25,15,59,6.20
2018,01,25,16,00,6.20
2018,01,25,16,01,6.20
2018,01,25,16,02,6.20
2018,01,25,16,03,6.20
2018,01,25,16,04,6.20
2018,01,25,16,05,6.20
2018,01,25,16,06,6.20
2018,01,25,16,07,6.20
2018,01,25,16,08,6.10
2018,01,25,16,09,6.10
2018,01,25,16,10,6.10
2018,01,25,16,11,6.10
2018,01,25,16,12,6.10
2018,01,25,16,13,6.00
2018,01,25,16,14,6.00
2018,01,25,16,15,5.90
2018,01,25,16,16,5.90
2018,01,25,16,17,5.90
2018,01,25,16,18,5.90
2018,01,25,16,19,5.80
2018,01,25,16,20,5.80
2018,01,25,16,21,5.80
2018,01,25,16,22,5.80
2018,01,25,16,23,5.80
2018,01,25,16,24,5.80
2018,01,25,16,25,5.80
2018,01,25,16,26,5.70
2018,01,25,16,27,5.70
2018,01,25,16,28,5.70
2018,01,25,16,29,5.70
2018,01,25,16,30,5.70
2018,01,25,16,31,5.60
2018,01,25,16,32,5.60
2018,01,25,16,33,5.60
2018,01,25,16,34,5.50
2018,01,25,16,35,5.50
2018,01,25,16,36,5.40
2018,01,25,16,37,5.40
2018,01,25,16,38,5.40
2018,01,25,16,39,5.30
2018,01,25,16,40,5.30
2018,01,25,16,41,5.20
2018,01,25,16,42,5.20
2018,01,25,16,43,5.20
2018,01,25,16,44,5.10
2018,01,25,16,45,5.10
2018,01,25,16,46,5.10
2018,01,25,16,47,5.10
2018,01,25,16,48,5.10
2018,01,25,16,49,5.00
2018,01,25,16,50,5.00
2018,01,25,16,51,4.90
2018,01,25,16,52,4.90
2018,01,25,16,53,4.90
2018,01,25,16,54,4.90
2018,01,25,16,55,4.90
2018,01,25,16,56,4.80
2018,01,25,16,57,4.80
2018,01,25,16,58,4.80
2018,01,25,16,59,4.80
2018,01,25,17,00,4.70
2018,01,25,17,01,4.70
2018,01,25,17,02,4.70
2018,01,25,17,03,4.70
2018,01,25,17,04,4.70
2018,01,25,17,05,4.70
2018,01,25,17,06,4.60
2018,01,25,17,07,4.60
2018,01,25,17,08,4.60
2018,01,25,17,09,4.60
2018,01,25,17,10,4.60
2018,01,25,17,11,4.50
2018,01,25,17,12,4.50
2018,01,25,17,13,4.50
2018,01,25,17,14,4.40
2018,01,25,17,15,4.40
2018,01,25,17,16,4.40
2018,01,25,17,17,4.40
2018,01,25,17,18,4.40
2018,01,25,17,19,4.50
2018,01,25,17,20,4.50
2018,01,25,17,21,4.50
2018,01,25,17,22,4.60
2018,01,25,17,23,4.60
2018,01,25,17,24,4.60
2018,01,25,17,25,4.60
2018,01,25,17,26,4.60
2018,01,25,17,27,4.60
2018,01,25,17,28,4.60
2018,01,25,17,29,4.60
2018,01,25,17,30,4.60
2018,01,25,17,31,4.60
2018,01,25,17,32,4.50
2018,01,25,17,33,4.50
2018,01,25,17,34,4.50
2018,01,25,17,35,4.50
2018,01,25,17,36,4.50
2018,01,25,17,37,4.50
2018,01,25,17,38,4.50
2018,01,25,17,39,4.40
2018,01,25,17,40,4.40
2018,01,25,17,41,4.40
2018,01,25,17,42,4.50
2018,01,25,17,43,4.50
2018,01,25,17,44,4.50
2018,01,25,17,45,4.60
2018,01,25,17,46,4.60
2018,01,25,17,47,4.60
2018,01,25,17,48,4.70
2018,01,25,17,49,4.70
2018,01,25,17,50,4.70
2018,01,25,17,51,4.70
2018,01,25,17,52,4.70
2018,01,25,17,53,4.70
2018,01,25,17,54,4.70
2018,01,25,17,55,4.80
2018,01,25,17,56,4.80
2018,01,25,17,57,4.80
2018,01,25,17,58,4.80
2018,01,25,17,59,4.80
2018,01,25,18,00,4.80
2018,01,25,18,01,4.80
2018,01,25,18,02,4.80
2018,01,25,18,03,4.80
2018,01,25,18,04,4.80
2018,01,25,18,05,4.80
2018,01,25,18,06,4.80